Time,TemperatureF,DewpointF,PressureIn,WindDirection,WindDirectionDegrees,WindSpeedMPH,WindSpeedGustMPH,Humidity,HourlyPrecipIn,Conditions,Clouds,dailyrainin,SoftwareType,DateUTC
2013-04-09 00:03:00,56.0,49.0,-100.00,WNW,285,6.0,9.0,78,-99.99,,,-99.99,,2013-04-09 04:03:00,
2013-04-09 00:13:00,55.0,49.0,-100.00,WNW,300,4.0,9.0,79,-99.99,,,-99.99,,2013-04-09 04:13:00,
2013-04-09 00:23:00,55.0,49.0,-100.00,NNW,335,4.0,6.0,80,-99.99,,,-99.99,,2013-04-09 04:23:00,
2013-04-09 00:32:00,54.0,49.0,-100.00,NW,310,6.0,11.0,80,-99.99,,,-99.99,,2013-04-09 04:32:00,
2013-04-09 00:42:00,54.0,49.0,-100.00,NW,310,6.0,11.0,80,-99.99,,,-99.99,,2013-04-09 04:42:00,
2013-04-09 00:52:00,54.0,49.0,-100.00,NW,310,6.0,11.0,80,-99.99,,,-99.99,,2013-04-09 04:52:00,
2013-04-09 01:02:00,53.0,47.0,-100.00,NW,315,4.0,11.0,82,-99.99,,,-99.99,,2013-04-09 05:02:00,
2013-04-09 01:12:00,52.0,47.0,-100.00,WNW,295,5.0,11.0,82,-99.99,,,-99.99,,2013-04-09 05:12:00,
2013-04-09 01:22:00,52.0,47.0,-100.00,West,280,6.0,9.0,83,-99.99,,,-99.99,,2013-04-09 05:22:00,
2013-04-09 01:32:00,52.0,47.0,-100.00,NW,310,4.0,9.0,84,-99.99,,,-99.99,,2013-04-09 05:32:00,
2013-04-09 01:42:00,51.0,47.0,-100.00,WNW,285,1.0,4.0,84,-99.99,,,-99.99,,2013-04-09 05:42:00,
2013-04-09 01:52:00,51.0,47.0,-100.00,NW,305,3.0,6.0,85,-99.99,,,-99.99,,2013-04-09 05:52:00,
2013-04-09 02:02:00,51.0,47.0,-100.00,North,350,3.0,5.0,86,-99.99,,,-99.99,,2013-04-09 06:02:00,
2013-04-09 02:12:00,50.0,47.0,-100.00,NW,315,4.0,7.0,87,-99.99,,,-99.99,,2013-04-09 06:12:00,
2013-04-09 02:22:00,50.0,46.0,-100.00,NW,325,4.0,6.0,88,-99.99,,,-99.99,,2013-04-09 06:22:00,
2013-04-09 02:32:00,49.0,46.0,-100.00,NW,325,2.0,6.0,89,-99.99,,,-99.99,,2013-04-09 06:32:00,
2013-04-09 02:42:00,49.0,46.0,-100.00,NNW,335,4.0,7.0,89,-99.99,,,-99.99,,2013-04-09 06:42:00,
2013-04-09 02:52:00,49.0,46.0,-100.00,North,5,4.0,6.0,90,-99.99,,,-99.99,,2013-04-09 06:52:00,
2013-04-09 03:02:00,48.0,46.0,-100.00,North,0,4.0,4.0,91,-99.99,,,-99.99,,2013-04-09 07:02:00,
2013-04-09 03:13:00,48.0,46.0,-100.00,North,5,2.0,3.0,91,-99.99,,,-99.99,,2013-04-09 07:13:00,
2013-04-09 03:22:00,48.0,46.0,-100.00,NNE,25,3.0,4.0,92,-99.99,,,-99.99,,2013-04-09 07:22:00,
2013-04-09 03:32:00,47.0,46.0,-100.00,North,0,2.0,6.0,93,-99.99,,,-99.99,,2013-04-09 07:32:00,
2013-04-09 03:42:00,47.0,46.0,-100.00,NNE,15,1.0,4.0,94,-99.99,,,-99.99,,2013-04-09 07:42:00,
2013-04-09 03:52:00,47.0,45.0,-100.00,SE,135,1.0,1.0,94,-99.99,,,-99.99,,2013-04-09 07:52:00,
2013-04-09 04:03:00,47.0,45.0,-100.00,SSW,200,0.0,1.0,94,-99.99,,,-99.99,,2013-04-09 08:03:00,
2013-04-09 04:12:00,46.0,45.0,-100.00,NE,45,1.0,1.0,95,-99.99,,,-99.99,,2013-04-09 08:12:00,
2013-04-09 04:22:00,46.0,46.0,-100.00,North,350,0.0,2.0,96,-99.99,,,-99.99,,2013-04-09 08:22:00,
2013-04-09 04:32:00,46.0,45.0,-100.00,NE,35,3.0,4.0,96,-99.99,,,-99.99,,2013-04-09 08:32:00,
2013-04-09 04:42:00,46.0,46.0,-100.00,NE,35,2.0,4.0,96,-99.99,,,-99.99,,2013-04-09 08:42:00,
2013-04-09 04:52:00,46.0,45.0,-100.00,East,95,1.0,4.0,96,-99.99,,,-99.99,,2013-04-09 08:52:00,
2013-04-09 05:02:00,46.0,46.0,-100.00,NE,50,1.0,3.0,97,-99.99,,,-99.99,,2013-04-09 09:02:00,
2013-04-09 05:12:00,46.0,46.0,-100.00,East,95,1.0,3.0,97,-99.99,,,-99.99,,2013-04-09 09:12:00,
2013-04-09 05:22:00,46.0,46.0,-100.00,ENE,70,1.0,4.0,97,-99.99,,,-99.99,,2013-04-09 09:22:00,
2013-04-09 05:33:00,46.0,45.0,-100.00,ESE,115,1.0,4.0,97,-99.99,,,-99.99,,2013-04-09 09:33:00,
2013-04-09 05:43:00,46.0,45.0,-100.00,SE,135,1.0,3.0,97,-99.99,,,-99.99,,2013-04-09 09:43:00,
2013-04-09 05:52:00,46.0,45.0,-100.00,East,85,2.0,4.0,97,-99.99,,,-99.99,,2013-04-09 09:52:00,
2013-04-09 06:04:00,46.0,45.0,-100.00,SE,130,2.0,3.0,97,-99.99,,,-99.99,,2013-04-09 10:04:00,
2013-04-09 06:13:00,46.0,45.0,-100.00,SSE,165,0.0,4.0,97,-99.99,,,-99.99,,2013-04-09 10:13:00,
2013-04-09 06:23:00,46.0,45.0,-100.00,NE,40,1.0,2.0,98,-99.99,,,-99.99,,2013-04-09 10:23:00,
2013-04-09 06:33:00,46.0,45.0,-100.00,East,80,1.0,3.0,98,-99.99,,,-99.99,,2013-04-09 10:33:00,
2013-04-09 06:43:00,46.0,45.0,-100.00,South,190,1.0,4.0,98,-99.99,,,-99.99,,2013-04-09 10:43:00,
2013-04-09 06:52:00,46.0,46.0,-100.00,East,100,2.0,4.0,98,-99.99,,,-99.99,,2013-04-09 10:52:00,
2013-04-09 07:02:00,46.0,46.0,-100.00,ESE,105,1.0,5.0,98,-99.99,,,-99.99,,2013-04-09 11:02:00,
2013-04-09 07:12:00,46.0,46.0,-100.00,ESE,115,2.0,4.0,98,-99.99,,,-99.99,,2013-04-09 11:12:00,
2013-04-09 07:22:00,46.0,45.0,-100.00,SE,140,2.0,4.0,98,-99.99,,,-99.99,,2013-04-09 11:22:00,
2013-04-09 07:32:00,46.0,45.0,-100.00,East,90,2.0,4.0,98,-99.99,,,-99.99,,2013-04-09 11:32:00,
2013-04-09 07:42:00,46.0,45.0,-100.00,SSE,155,2.0,4.0,98,-99.99,,,-99.99,,2013-04-09 11:42:00,
2013-04-09 07:52:00,46.0,45.0,-100.00,East,80,2.0,4.0,98,-99.99,,,-99.99,,2013-04-09 11:52:00,
2013-04-09 08:02:00,46.0,45.0,-100.00,East,90,2.0,6.0,98,-99.99,,,-99.99,,2013-04-09 12:02:00,
2013-04-09 08:12:00,46.0,46.0,-100.00,East,100,3.0,6.0,98,-99.99,,,-99.99,,2013-04-09 12:12:00,
2013-04-09 08:22:00,46.0,46.0,-100.00,ESE,115,1.0,6.0,98,-99.99,,,-99.99,,2013-04-09 12:22:00,
2013-04-09 08:32:00,47.0,46.0,-100.00,East,90,3.0,6.0,98,-99.99,,,-99.99,,2013-04-09 12:32:00,
2013-04-09 08:42:00,47.0,47.0,-100.00,East,80,4.0,9.0,98,-99.99,,,-99.99,,2013-04-09 12:42:00,
2013-04-09 08:52:00,48.0,47.0,-100.00,ESE,110,5.0,9.0,98,-99.99,,,-99.99,,2013-04-09 12:52:00,
2013-04-09 09:03:00,48.0,48.0,-100.00,East,85,6.0,9.0,98,-99.99,,,-99.99,,2013-04-09 13:03:00,
2013-04-09 09:12:00,48.0,48.0,-100.00,East,80,6.0,7.0,98,-99.99,,,-99.99,,2013-04-09 13:12:00,
2013-04-09 09:23:00,49.0,48.0,-100.00,East,85,5.0,11.0,98,-99.99,,,-99.99,,2013-04-09 13:23:00,
2013-04-09 09:33:00,49.0,49.0,-100.00,East,95,6.0,10.0,98,-99.99,,,-99.99,,2013-04-09 13:33:00,
2013-04-09 09:42:00,49.0,48.0,-100.00,ESE,120,6.0,11.0,97,-99.99,,,-99.99,,2013-04-09 13:42:00,
2013-04-09 09:52:00,49.0,48.0,-100.00,ESE,110,7.0,12.0,96,-99.99,,,-99.99,,2013-04-09 13:52:00,
2013-04-09 10:03:00,49.0,48.0,-100.00,ESE,120,7.0,12.0,96,-99.99,,,-99.99,,2013-04-09 14:03:00,
2013-04-09 10:12:00,49.0,48.0,-100.00,SE,130,8.0,14.0,96,-99.99,,,-99.99,,2013-04-09 14:12:00,
2013-04-09 10:22:00,49.0,47.0,-100.00,ESE,115,9.0,14.0,95,-99.99,,,-99.99,,2013-04-09 14:22:00,
2013-04-09 10:32:00,49.0,48.0,-100.00,East,95,7.0,14.0,95,-99.99,,,-99.99,,2013-04-09 14:32:00,
2013-04-09 10:42:00,49.0,48.0,-100.00,East,95,7.0,12.0,94,-99.99,,,-99.99,,2013-04-09 14:42:00,
2013-04-09 10:52:00,50.0,48.0,-100.00,East,90,6.0,11.0,94,-99.99,,,-99.99,,2013-04-09 14:52:00,
2013-04-09 11:02:00,51.0,49.0,-100.00,ENE,70,6.0,11.0,93,-99.99,,,-99.99,,2013-04-09 15:02:00,
2013-04-09 11:13:00,51.0,49.0,-100.00,NNE,25,6.0,10.0,91,-99.99,,,-99.99,,2013-04-09 15:13:00,
2013-04-09 11:22:00,51.0,49.0,-100.00,NNE,25,6.0,10.0,91,-99.99,,,-99.99,,2013-04-09 15:22:00,
2013-04-09 11:34:00,52.0,49.0,-100.00,ENE,60,5.0,9.0,90,-99.99,,,-99.99,,2013-04-09 15:34:00,
2013-04-09 11:43:00,51.0,48.0,-100.00,ENE,65,6.0,9.0,89,-99.99,,,-99.99,,2013-04-09 15:43:00,
2013-04-09 11:53:00,51.0,48.0,-100.00,NE,50,8.0,12.0,89,-99.99,,,-99.99,,2013-04-09 15:53:00,
2013-04-09 12:03:00,50.0,47.0,-100.00,NE,50,8.0,12.0,89,-99.99,,,-99.99,,2013-04-09 16:03:00,
2013-04-09 12:13:00,50.0,47.0,-100.00,NE,40,7.0,13.0,90,-99.99,,,-99.99,,2013-04-09 16:13:00,
2013-04-09 12:23:00,49.0,47.0,-100.00,NE,50,6.0,10.0,91,-99.99,,,-99.99,,2013-04-09 16:23:00,
2013-04-09 12:33:00,49.0,47.0,-100.00,NE,55,6.0,9.0,91,-99.99,,,-99.99,,2013-04-09 16:33:00,
2013-04-09 12:42:00,49.0,46.0,-100.00,NNE,30,6.0,12.0,91,-99.99,,,-99.99,,2013-04-09 16:42:00,
2013-04-09 12:53:00,48.0,46.0,-100.00,ENE,60,9.0,12.0,92,-99.99,,,-99.99,,2013-04-09 16:53:00,
2013-04-09 13:02:00,47.0,46.0,-100.00,ENE,65,11.0,14.0,93,-99.99,,,-99.99,,2013-04-09 17:02:00,
2013-04-09 13:13:00,47.0,46.0,-100.00,ENE,60,6.0,13.0,94,-99.99,,,-99.99,,2013-04-09 17:13:00,
2013-04-09 13:23:00,47.0,46.0,-100.00,ENE,65,6.0,13.0,94,-99.99,,,-99.99,,2013-04-09 17:23:00,
2013-04-09 13:32:00,48.0,47.0,-100.00,ENE,65,6.0,14.0,94,-99.99,,,-99.99,,2013-04-09 17:32:00,
2013-04-09 13:42:00,49.0,48.0,-100.00,ESE,105,7.0,13.0,94,-99.99,,,-99.99,,2013-04-09 17:42:00,
2013-04-09 13:53:00,50.0,49.0,-100.00,ESE,105,6.0,13.0,93,-99.99,,,-99.99,,2013-04-09 17:53:00,
2013-04-09 14:02:00,51.0,48.0,-100.00,East,85,7.0,14.0,92,-99.99,,,-99.99,,2013-04-09 18:02:00,
2013-04-09 14:13:00,52.0,49.0,-100.00,East,85,7.0,12.0,89,-99.99,,,-99.99,,2013-04-09 18:13:00,
2013-04-09 14:23:00,53.0,49.0,-100.00,East,80,7.0,11.0,86,-99.99,,,-99.99,,2013-04-09 18:23:00,
2013-04-09 14:33:00,53.0,49.0,-100.00,East,80,7.0,11.0,86,-99.99,,,-99.99,,2013-04-09 18:33:00,
2013-04-09 14:43:00,53.0,48.0,-100.00,ENE,70,9.0,10.0,82,-99.99,,,-99.99,,2013-04-09 18:43:00,
2013-04-09 14:52:00,54.0,49.0,-100.00,NE,55,7.0,12.0,82,-99.99,,,-99.99,,2013-04-09 18:52:00,
2013-04-09 15:03:00,54.0,49.0,-100.00,NE,55,7.0,12.0,82,-99.99,,,-99.99,,2013-04-09 19:03:00,
2013-04-09 15:12:00,54.0,49.0,-100.00,NE,55,7.0,12.0,82,-99.99,,,-99.99,,2013-04-09 19:12:00,
2013-04-09 15:22:00,55.0,49.0,-100.00,ENE,70,9.0,12.0,81,-99.99,,,-99.99,,2013-04-09 19:22:00,
2013-04-09 15:32:00,55.0,49.0,-100.00,ENE,75,9.0,12.0,80,-99.99,,,-99.99,,2013-04-09 19:32:00,
2013-04-09 15:42:00,55.0,49.0,-100.00,ENE,75,9.0,12.0,80,-99.99,,,-99.99,,2013-04-09 19:42:00,
2013-04-09 15:52:00,52.0,47.0,-100.00,ENE,65,9.0,15.0,82,-99.99,,,-99.99,,2013-04-09 19:52:00,
2013-04-09 16:03:00,53.0,48.0,-100.00,ENE,75,8.0,14.0,83,-99.99,,,-99.99,,2013-04-09 20:03:00,
2013-04-09 16:12:00,53.0,48.0,-100.00,East,80,11.0,16.0,82,-99.99,,,-99.99,,2013-04-09 20:12:00,
2013-04-09 16:22:00,53.0,47.0,-100.00,ENE,60,8.0,13.0,81,-99.99,,,-99.99,,2013-04-09 20:22:00,
2013-04-09 16:34:00,53.0,47.0,-100.00,NE,40,6.0,12.0,81,-99.99,,,-99.99,,2013-04-09 20:34:00,
2013-04-09 16:43:00,53.0,47.0,-100.00,ENE,70,10.0,13.0,80,-99.99,,,-99.99,,2013-04-09 20:43:00,
2013-04-09 16:52:00,52.0,47.0,-100.00,East,85,4.0,15.0,82,-99.99,,,-99.99,,2013-04-09 20:52:00,
2013-04-09 17:02:00,53.0,48.0,-100.00,ENE,70,6.0,11.0,82,-99.99,,,-99.99,,2013-04-09 21:02:00,
2013-04-09 17:13:00,52.0,47.0,-100.00,ENE,60,9.0,14.0,82,-99.99,,,-99.99,,2013-04-09 21:13:00,
2013-04-09 17:22:00,52.0,47.0,-100.00,ENE,60,9.0,14.0,82,-99.99,,,-99.99,,2013-04-09 21:22:00,
2013-04-09 17:33:00,51.0,46.0,-100.00,NE,35,7.0,11.0,83,-99.99,,,-99.99,,2013-04-09 21:33:00,
2013-04-09 17:42:00,51.0,46.0,-100.00,NE,35,7.0,11.0,83,-99.99,,,-99.99,,2013-04-09 21:42:00,
2013-04-09 17:52:00,51.0,47.0,-100.00,East,85,6.0,12.0,85,-99.99,,,-99.99,,2013-04-09 21:52:00,
2013-04-09 18:03:00,51.0,46.0,-100.00,East,80,4.0,11.0,85,-99.99,,,-99.99,,2013-04-09 22:03:00,
2013-04-09 18:13:00,50.0,46.0,-100.00,ENE,70,6.0,10.0,85,-99.99,,,-99.99,,2013-04-09 22:13:00,
2013-04-09 18:23:00,50.0,46.0,-100.00,ENE,65,6.0,9.0,85,-99.99,,,-99.99,,2013-04-09 22:23:00,
2013-04-09 18:33:00,49.0,46.0,-100.00,NE,55,6.0,10.0,86,-99.99,,,-99.99,,2013-04-09 22:33:00,
2013-04-09 18:42:00,49.0,46.0,-100.00,NE,55,6.0,10.0,86,-99.99,,,-99.99,,2013-04-09 22:42:00,
2013-04-09 18:53:00,48.0,45.0,-100.00,NE,55,9.0,12.0,89,-99.99,,,-99.99,,2013-04-09 22:53:00,
2013-04-09 19:03:00,48.0,45.0,-100.00,NE,55,9.0,12.0,89,-99.99,,,-99.99,,2013-04-09 23:03:00,
2013-04-09 19:12:00,47.0,45.0,-100.00,NNE,30,9.0,12.0,91,-99.99,,,-99.99,,2013-04-09 23:12:00,
2013-04-09 19:23:00,47.0,45.0,-100.00,NE,55,6.0,12.0,92,-99.99,,,-99.99,,2013-04-09 23:23:00,
2013-04-09 19:32:00,47.0,45.0,-100.00,NE,35,4.0,9.0,92,-99.99,,,-99.99,,2013-04-09 23:32:00,
2013-04-09 19:42:00,47.0,45.0,-100.00,NE,45,6.0,10.0,93,-99.99,,,-99.99,,2013-04-09 23:42:00,
2013-04-09 19:52:00,47.0,45.0,-100.00,ENE,70,6.0,9.0,93,-99.99,,,-99.99,,2013-04-09 23:52:00,
2013-04-09 20:03:00,47.0,46.0,-100.00,ENE,70,7.0,11.0,93,-99.99,,,-99.99,,2013-04-10 00:03:00,
2013-04-09 20:12:00,47.0,46.0,-100.00,ENE,70,7.0,11.0,93,-99.99,,,-99.99,,2013-04-10 00:12:00,
2013-04-09 20:23:00,48.0,47.0,-100.00,ENE,75,1.0,6.0,93,-99.99,,,-99.99,,2013-04-10 00:23:00,
2013-04-09 20:33:00,49.0,47.0,-100.00,East,95,4.0,8.0,93,-99.99,,,-99.99,,2013-04-10 00:33:00,
2013-04-09 20:42:00,49.0,47.0,-100.00,East,80,3.0,6.0,93,-99.99,,,-99.99,,2013-04-10 00:42:00,
2013-04-09 20:52:00,49.0,47.0,-100.00,SE,145,3.0,6.0,93,-99.99,,,-99.99,,2013-04-10 00:52:00,
2013-04-09 21:02:00,49.0,47.0,-100.00,ESE,110,6.0,9.0,93,-99.99,,,-99.99,,2013-04-10 01:02:00,
2013-04-09 21:12:00,49.0,47.0,-100.00,East,95,4.0,9.0,94,-99.99,,,-99.99,,2013-04-10 01:12:00,
2013-04-09 21:23:00,49.0,48.0,-100.00,ENE,75,6.0,9.0,94,-99.99,,,-99.99,,2013-04-10 01:23:00,
2013-04-09 21:32:00,49.0,48.0,-100.00,SE,125,4.0,7.0,94,-99.99,,,-99.99,,2013-04-10 01:32:00,
2013-04-09 21:42:00,49.0,48.0,-100.00,ENE,70,2.0,4.0,94,-99.99,,,-99.99,,2013-04-10 01:42:00,
2013-04-09 21:52:00,49.0,48.0,-100.00,ESE,105,5.0,9.0,94,-99.99,,,-99.99,,2013-04-10 01:52:00,
2013-04-09 22:02:00,49.0,48.0,-100.00,ESE,115,4.0,8.0,94,-99.99,,,-99.99,,2013-04-10 02:02:00,
2013-04-09 22:12:00,49.0,48.0,-100.00,East,90,4.0,7.0,95,-99.99,,,-99.99,,2013-04-10 02:12:00,
2013-04-09 22:22:00,49.0,48.0,-100.00,East,95,4.0,7.0,95,-99.99,,,-99.99,,2013-04-10 02:22:00,
2013-04-09 22:33:00,49.0,48.0,-100.00,East,95,4.0,7.0,95,-99.99,,,-99.99,,2013-04-10 02:33:00,
2013-04-09 22:43:00,49.0,48.0,-100.00,NE,45,6.0,9.0,95,-99.99,,,-99.99,,2013-04-10 02:43:00,
2013-04-09 22:52:00,49.0,48.0,-100.00,NNE,25,7.0,11.0,96,-99.99,,,-99.99,,2013-04-10 02:52:00,
2013-04-09 23:03:00,49.0,48.0,-100.00,NE,55,9.0,13.0,96,-99.99,,,-99.99,,2013-04-10 03:03:00,
2013-04-09 23:12:00,49.0,49.0,-100.00,NE,35,9.0,14.0,97,-99.99,,,-99.99,,2013-04-10 03:12:00,
2013-04-09 23:22:00,49.0,49.0,-100.00,NE,35,8.0,12.0,98,-99.99,,,-99.99,,2013-04-10 03:22:00,
2013-04-09 23:33:00,49.0,49.0,-100.00,NE,35,5.0,13.0,98,-99.99,,,-99.99,,2013-04-10 03:33:00,
2013-04-09 23:43:00,49.0,49.0,-100.00,NNE,30,6.0,9.0,98,-99.99,,,-99.99,,2013-04-10 03:43:00,
2013-04-09 23:52:00,49.0,49.0,-100.00,NNE,25,9.0,12.0,99,-99.99,,,-99.99,,2013-04-10 03:52:00,